Theta_e
303 305 304 304 303 305 305 305 305 304 304 305 307 306 305 304 305 306 300 301 298 297 297 299 299 298 298 297 298 296 296 293 292 294 296 298 297 297 295 295 297 297 294 293 291 294 295 296 296 295 295 294 292 292 292 293 292 293 292 291 292 291 291 290 290 291 294 296 296 297 298 296 296 296 295 295 294 292 291 291 290 289 289 290 291
302 302 302 304 303 303 303 301 304 302 303 302 304 305 302 301 301 297 299 296 295 297 296 295 293 294 295 294 293 293 293 297 291 292 293 293 292 292 292 292 294 294 291 293 292 293 295 296 296 293 293 294 294 292 292 292 291 291 291 291 291 291 292 291 290 290 290 294 294 296 296 296 294 296 295 295 295 294 293 293 292 290 290 290 290
301 301 302 302 302 301 300 300 301 299 301 297 297 298 297 295 294 300 297 295 292 293 294 293 293 292 292 291 295 291 294 293 289 290 291 292 293 290 290 291 293 294 294 295 296 295 295 294 295 294 295 293 292 292 291 291 291 291 291 291 291 291 291 291 291 290 290 292 294 294 294 294 293 294 295 295 295 293 293 293 293 293 291 290 290
300 300 299 299 299 297 298 297 297 296 298 295 296 295 295 294 293 295 294 292 292 291 292 292 291 290 292 291 291 291 291 290 289 288 292 291 290 292 290 291 293 295 295 296 295 295 295 295 295 293 291 292 291 291 290 290 291 291 291 291 291 291 292 292 292 291 291 290 292 293 294 293 294 295 295 294 293 293 293 293 293 292 292 292 291
298 296 295 296 294 295 294 292 295 294 295 293 294 293 292 292 291 294 291 291 290 289 290 288 289 291 291 291 290 289 288 287 289 287 287 288 290 291 292 293 294 294 295 296 294 295 295 295 295 293 292 291 291 290 290 290 291 290 290 291 291 291 291 291 291 291 290 290 291 293 293 293 294 294 294 293 293 293 293 292 293 293 293 293 292
296 297 294 296 294 293 292 291 292 293 292 292 292 292 291 291 290 289 291 293 288 287 289 289 288 289 288 288 287 287 287 287 288 287 287 288 289 290 291 292 293 294 295 295 296 296 296 295 295 293 292 291 291 291 291 291 291 290 290 290 290 290 290 290 290 290 290 290 290 290 292 291 292 292 293 293 292 291 292 293 293 292 291 291 291
293 295 292 293 292 291 290 290 290 291 291 291 290 291 290 289 289 289 288 288 289 288 288 288 287 287 287 288 287 287 287 287 287 286 286 287 287 288 289 289 290 291 292 292 293 293 294 294 295 295 294 293 293 292 292 291 291 290 290 291 290 290 290 290 290 289 290 290 290 291 290 291 291 291 292 292 292 292 290 290 290 292 291 291 291
292 292 291 290 290 290 288 288 288 288 288 288 289 288 287 287 287 287 288 289 288 287 287 288 287 287 287 288 287 287 287 286 286 286 287 288 287 287 287 288 287 286 286 287 287 288 290 291 292 292 292 292 292 292 292 291 291 291 291 290 290 290 290 290 289 289 289 289 289 289 290 290 291 292 292 290 289 289 289 289 288 289 290 291 291
290 290 289 290 289 288 287 287 287 288 288 288 288 288 287 287 287 287 287 287 287 286 286 287 287 287 286 286 286 285 286 287 288 289 289 288 286 287 287 288 287 286 286 285 285 285 285 285 287 288 289 289 290 291 292 292 293 292 291 290 290 290 290 290 290 289 288 289 289 290 290 289 290 290 290 289 289 289 291 290 289 290 291 290 291
291 289 289 288 287 287 288 287 288 288 289 288 287 287 287 287 287 288 287 286 287 287 287 286 286 286 287 285 284 285 285 285 286 290 292 288 288 287 287 286 286 286 285 285 286 285 285 285 286 287 287 287 288 289 290 291 291 291 291 291 290 290 289 289 289 288 288 288 289 289 288 289 289 290 290 290 291 291 290 290 288 290 290 289 290
289 289 288 287 287 288 289 288 288 288 287 287 287 288 288 287 287 287 287 286 286 286 286 287 285 285 285 286 287 286 286 286 289 293 294 294 290 288 287 286 286 285 285 284 285 285 285 286 286 286 287 287 288 289 290 290 291 291 291 291 290 290 289 289 289 289 289 288 289 289 289 288 289 290 290 290 291 290 289 289 289 289 288 287 286
289 288 287 287 288 288 287 288 288 287 287 287 287 286 287 287 287 287 287 287 286 286 286 285 285 285 286 285 285 286 286 288 292 292 293 293 293 288 286 286 285 285 284 284 284 284 285 286 286 288 287 287 287 287 288 289 290 290 290 290 290 291 291 289 288 288 288 288 288 288 289 289 289 290 290 289 289 289 289 288 288 288 287 287 287
288 287 287 287 286 286 287 287 287 286 286 286 286 287 287 287 286 287 286 285 285 286 285 286 285 285 286 286 286 284 284 288 291 292 292 292 293 290 286 286 285 284 284 284 284 284 284 285 285 286 288 287 287 287 287 287 288 288 289 289 289 289 291 292 292 290 290 288 288 288 288 289 288 289 290 289 289 288 288 288 288 288 288 287 287
286 286 286 286 286 286 286 286 286 285 285 286 286 286 286 285 284 283 284 285 286 286 285 285 285 285 284 284 284 283 284 288 291 291 291 292 293 291 284 285 284 284 285 284 284 284 285 285 285 286 286 286 287 287 287 287 287 287 287 287 287 287 288 289 289 289 289 289 288 287 288 289 288 289 289 289 288 287 287 287 287 287 286 286 288
285 285 284 284 285 285 285 285 285 285 285 285 285 284 284 284 284 284 284 285 286 286 285 284 284 284 283 283 284 284 285 290 290 290 291 291 292 289 284 284 284 284 284 284 285 285 285 285 285 285 285 286 286 287 287 287 287 286 286 286 287 287 287 286 287 287 287 288 288 287 288 288 288 289 289 289 288 288 288 287 287 287 287 288 288
283 283 283 283 283 284 284 284 284 284 284 284 284 283 283 283 283 283 283 283 283 284 283 283 283 283 283 283 284 284 285 289 290 290 291 291 290 283 283 283 282 283 284 285 284 285 285 285 285 284 285 286 287 288 289 288 286 286 285 286 286 287 287 287 289 290 289 288 288 288 288 289 290 290 289 290 290 289 289 289 288 287 286 285 285
282 282 282 282 282 283 283 283 283 283 283 283 283 282 282 282 283 282 283 283 283 283 283 283 282 283 283 283 284 284 285 287 289 290 291 291 287 283 281 282 283 284 285 284 284 285 285 285 285 285 285 285 287 288 289 288 285 285 285 285 285 285 285 287 289 290 290 290 291 291 291 291 291 291 291 292 290 290 288 286 285 286 285 283 284
281 281 281 281 282 282 282 283 283 282 282 282 282 282 282 282 282 282 283 282 282 282 282 283 283 283 284 284 284 284 284 286 289 289 290 289 287 285 285 285 285 285 285 285 285 284 284 285 285 285 285 285 287 288 288 287 285 285 284 284 284 284 284 286 286 287 288 288 289 289 289 290 290 290 291 290 291 290 286 284 285 286 284 284 282
280 281 281 281 281 281 282 282 282 282 282 281 281 281 281 281 281 281 282 282 282 282 283 284 284 284 284 284 283 283 283 284 288 288 288 288 286 285 285 284 284 284 284 284 285 285 285 285 285 285 285 285 287 287 287 286 285 284 284 284 283 283 284 285 285 285 285 285 286 286 286 287 287 286 286 289 289 288 287 286 286 285 283 284 284
280 280 281 281 281 281 281 281 281 281 281 281 281 281 281 281 281 282 282 282 283 283 283 283 283 282 282 282 282 282 282 283 285 287 287 287 287 285 284 283 283 283 283 283 283 283 283 283 284 285 286 287 287 287 287 287 285 285 285 284 283 283 285 285 285 285 285 285 285 285 285 286 286 286 286 286 287 287 287 287 286 286 284 284 284
279 279 279 279 279 279 280 280 280 280 280 280 281 280 281 281 281 281 281 281 281 281 281 281 282 282 282 282 281 282 282 282 283 286 286 286 287 286 284 283 283 282 282 282 281 281 281 282 283 285 286 287 287 287 287 288 287 286 285 284 284 285 287 285 285 285 285 285 285 285 285 285 285 286 286 286 286 286 287 287 287 287 285 284 284
278 278 278 277 277 277 278 278 278 278 279 279 279 279 279 279 279 279 279 280 280 280 280 281 281 281 281 281 281 281 282 283 283 284 285 285 286 286 284 283 284 282 280 280 280 280 281 281 282 284 286 286 287 287 287 287 287 285 285 287 287 287 286 285 285 285 285 285 284 284 284 284 285 285 285 286 286 286 286 286 286 286 287 286 284
276 276 275 275 275 275 275 275 275 276 276 276 277 277 277 277 277 278 278 278 278 278 278 279 279 279 279 280 281 281 282 283 283 283 284 285 285 285 286 284 285 283 282 280 281 281 282 282 283 284 285 286 286 286 287 287 286 285 287 287 287 287 287 285 285 284 284 284 284 283 283 284 284 284 284 285 285 285 285 285 285 285 285 286 286
273 273 273 272 272 273 273 273 273 273 274 275 275 275 275 276 276 276 277 277 277 277 278 278 278 278 278 279 280 281 281 281 282 283 283 284 285 285 285 285 285 283 283 282 282 282 282 283 284 285 285 285 286 286 286 286 285 287 287 287 287 286 285 284 284 284 283 283 282 282 282 283 283 283 283 284 284 285 285 285 285 285 284 284 285
272 271 271 271 271 271 271 272 272 273 273 273 274 274 274 274 275 275 276 277 277 277 278 278 277 278 278 278 279 279 280 280 281 282 283 283 283 284 283 283 283 283 281 281 282 282 283 285 285 285 285 285 286 286 285 285 286 286 287 287 285 285 284 284 283 283 282 281 281 281 282 282 283 283 284 284 285 284 284 284 284 284 284 283 282
270 269 269 269 269 269 271 271 271 272 272 273 273 273 274 274 275 275 276 277 277 277 277 277 277 277 277 278 278 279 280 280 281 281 281 281 280 281 281 282 281 282 282 282 283 284 284 285 285 285 285 285 284 284 284 284 285 286 285 285 285 284 284 283 282 282 281 281 281 281 281 282 283 283 284 284 283 282 283 282 282 282 282 281 281
270 269 269 269 268 270 271 271 271 272 272 273 274 274 274 274 275 276 277 277 277 277 277 277 277 277 277 277 278 278 279 279 278 278 278 278 278 279 280 280 281 282 281 282 282 282 283 283 284 285 284 285 285 284 284 284 284 284 284 283 283 282 282 282 282 281 281 281 281 281 281 282 283 283 282 282 281 282 282 281 280 280 280 280 279
269 268 268 269 269 270 272 273 272 272 273 273 274 274 275 275 275 276 276 276 276 277 277 277 277 277 277 277 277 277 277 276 276 276 277 278 278 279 279 279 279 280 280 281 282 282 281 282 282 282 282 282 281 281 281 281 280 280 280 280 280 280 280 281 282 281 281 281 281 281 281 282 281 281 281 281 281 281 282 281 280 279 280 279 277
269 268 269 270 270 271 271 271 272 272 273 273 274 275 275 275 275 276 278 278 278 277 277 277 277 277 277 276 275 274 274 274 275 279 278 279 278 277 277 277 279 279 281 282 281 280 279 279 279 279 278 278 278 278 277 277 277 277 277 277 278 278 278 279 278 279 280 279 279 279 280 280 280 281 281 280 281 281 281 280 280 279 279 278 276
268 268 269 270 270 271 271 271 271 272 272 273 274 276 278 279 278 276 277 280 281 281 280 277 277 277 275 275 275 273 273 275 278 278 278 278 278 279 279 280 281 280 280 281 279 277 277 277 278 277 276 275 275 275 275 275 275 276 277 277 277 277 277 277 278 278 278 277 278 279 278 279 279 280 280 280 280 281 281 281 279 279 277 276 275
268 268 269 269 270 270 270 271 271 271 271 271 271 272 273 276 280 280 280 279 279 279 279 279 278 277 275 272 274 277 277 277 277 277 277 277 277 278 278 279 279 278 278 276 274 274 273 272 272 272 272 272 272 272 273 274 275 275 274 274 275 276 275 276 276 276 275 277 277 277 277 277 277 278 278 279 279 279 280 279 278 277 276 276 275
267 267 267 269 270 269 269 269 269 269 270 270 271 271 271 271 274 278 279 278 278 277 277 277 277 276 276 275 273 273 275 276 276 276 276 276 276 276 276 277 277 276 275 275 270 270 270 269 268 268 269 268 269 270 271 272 273 271 271 271 271 273 274 274 274 273 275 276 275 274 275 275 276 276 276 277 278 278 278 278 278 277 276 276 275
267 267 267 268 269 269 269 268 269 270 270 271 271 271 270 269 268 269 274 277 276 275 275 275 275 274 274 275 275 275 275 275 275 275 274 274 274 274 274 274 275 274 272 268 267 267 267 266 266 266 266 266 267 268 269 270 270 269 269 269 269 270 271 271 273 274 274 273 273 272 273 274 274 274 275 275 276 276 277 277 277 277 276 275 274
267 267 267 267 267 268 269 269 269 269 270 270 270 270 270 270 270 269 267 266 267 270 272 273 273 272 273 274 274 274 274 274 274 274 273 273 273 272 271 269 272 272 270 265 265 265 265 264 264 264 264 264 265 266 266 267 267 267 267 267 268 268 268 270 270 271 271 271 271 272 272 272 272 271 272 273 274 275 275 276 277 276 275 275 274
267 268 268 268 267 267 268 269 269 270 270 270 270 270 270 270 270 269 267 267 265 264 262 264 269 272 269 270 272 273 273 273 273 272 272 272 271 270 268 263 262 263 264 264 264 264 263 262 262 262 262 262 263 264 264 264 265 265 265 265 266 266 267 267 268 269 268 268 268 268 268 268 269 270 270 270 271 272 273 274 275 276 275 275 275
267 267 267 267 267 267 267 267 268 269 269 269 270 269 269 268 268 268 268 267 265 262 261 261 262 267 269 269 270 271 271 271 271 271 270 270 269 267 260 261 261 261 262 262 262 263 263 262 262 261 261 262 262 262 263 263 263 263 264 264 264 264 265 266 266 266 266 265 265 266 266 266 267 268 268 269 270 271 272 273 274 274 275 275 275
265 265 265 265 266 266 267 268 268 268 269 269 268 268 268 267 267 266 265 265 264 262 259 259 260 260 263 264 266 268 269 269 269 269 268 268 267 262 260 260 260 259 260 260 261 261 261 261 261 260 260 260 261 262 262 262 262 262 263 263 263 263 263 264 265 264 263 263 263 263 264 264 265 266 267 267 268 270 271 272 272 273 273 274 275
262 263 263 265 265 266 266 266 268 269 268 267 267 266 266 265 264 264 263 262 262 261 258 259 262 259 259 261 265 264 263 265 265 264 264 264 262 259 259 259 259 258 257 257 259 259 259 259 260 260 259 260 260 260 261 261 261 261 261 262 262 262 264 263 264 263 263 262 262 262 262 263 264 264 266 266 267 268 270 270 271 271 272 273 274
265 267 268 268 267 263 262 264 265 264 264 265 265 265 264 263 261 260 259 258 258 259 258 256 255 256 256 260 261 263 260 257 257 257 257 257 257 257 254 255 255 256 256 256 257 258 257 258 259 259 259 259 259 259 260 260 260 260 261 261 261 261 262 262 262 262 262 261 261 261 261 262 263 264 264 265 266 268 269 269 270 270 271 271 273
265 266 266 267 264 265 263 263 262 261 262 261 262 262 261 261 259 258 257 256 256 256 255 256 255 254 255 257 260 260 257 257 255 255 256 256 255 255 253 253 253 254 254 254 254 255 256 256 257 258 258 259 259 259 259 259 259 259 260 260 260 260 261 261 261 261 261 261 261 261 261 261 262 263 263 264 266 267 268 268 269 269 270 271 271
261 263 265 265 264 262 262 261 260 259 259 260 259 258 259 259 259 258 256 255 256 256 256 255 253 252 255 262 265 264 255 253 254 254 255 255 255 253 253 252 253 252 254 254 254 254 254 255 256 256 257 257 258 258 258 258 258 258 258 259 259 259 260 261 262 261 261 261 260 260 261 261 262 262 261 263 266 267 267 268 268 269 270 270 271
260 260 262 262 262 260 259 259 259 261 259 260 257 257 258 257 256 256 257 256 257 256 254 253 251 252 258 263 263 264 256 252 254 254 254 254 254 253 254 253 252 251 252 252 252 253 253 254 255 255 255 256 256 257 258 257 258 257 257 258 258 258 259 260 261 261 261 260 260 260 261 261 261 262 262 264 264 266 266 266 267 268 268 269 269
259 259 259 259 258 258 258 257 256 255 256 256 256 260 259 255 254 255 255 256 255 255 254 253 254 254 256 262 261 262 255 250 256 254 252 253 253 254 253 254 253 252 252 252 252 252 253 253 253 254 254 254 254 255 255 256 256 257 257 257 257 257 258 260 260 261 260 260 259 260 261 261 261 261 261 262 263 264 265 266 266 267 267 268 269
258 258 258 258 258 257 257 255 256 256 255 258 258 257 256 254 253 252 252 252 253 254 253 252 253 254 253 255 256 253 250 252 250 250 251 254 253 254 254 252 253 252 252 252 252 251 251 251 253 253 253 254 253 252 254 254 254 255 256 256 256 257 257 258 259 260 260 259 259 260 260 260 260 260 260 262 262 263 264 264 265 265 266 266 267
256 256 256 256 255 254 254 255 255 255 256 254 252 253 255 252 252 252 253 252 254 254 253 253 253 253 253 253 251 251 251 250 252 253 253 252 252 253 253 253 252 253 253 252 252 251 249 252 252 252 253 253 253 253 253 253 252 253 253 254 255 255 256 257 258 260 261 260 259 259 260 260 259 259 259 260 262 262 263 263 264 265 265 265 266
255 255 255 255 255 255 253 252 254 252 252 251 249 248 249 248 249 251 253 253 254 253 252 252 252 252 252 252 251 252 252 250 251 251 253 252 252 253 251 252 252 252 252 252 251 251 252 251 252 252 252 252 253 253 253 252 252 252 252 253 254 255 256 257 259 260 260 260 259 259 260 260 259 259 259 259 260 261 262 262 263 264 264 264 265
254 254 255 254 254 254 254 254 250 250 250 251 251 251 251 251 251 253 255 254 253 254 252 251 250 250 251 250 251 251 251 251 251 252 251 252 251 252 252 251 252 252 252 252 249 252 251 252 252 252 252 252 252 252 253 253 252 252 252 253 253 254 254 256 258 259 260 260 260 259 260 259 258 258 258 258 259 260 261 261 262 262 263 263 264
253 253 253 253 252 251 251 251 252 256 251 251 251 252 252 252 251 252 250 250 251 251 251 250 249 249 250 250 251 251 251 250 251 252 252 252 250 251 251 250 251 252 252 252 251 251 251 251 251 251 251 252 252 252 252 252 252 252 252 252 252 253 254 256 257 258 260 260 260 260 259 258 258 257 257 258 258 259 259 259 260 261 262 262 263
251 251 251 251 252 251 251 251 252 250 249 249 251 251 251 250 250 249 249 250 250 250 249 250 251 248 249 250 250 251 250 252 251 251 251 251 249 251 251 250 251 252 251 252 252 252 252 251 251 251 251 251 251 251 251 252 252 252 252 252 253 255 255 257 258 259 260 260 260 260 259 257 256 256 257 257 257 257 258 258 259 260 261 261 261
251 251 251 252 252 250 250 249 248 245 249 249 248 248 249 250 249 249 249 249 249 249 248 248 250 250 249 250 251 251 250 251 251 251 251 251 251 249 251 251 250 251 251 251 251 251 251 250 250 251 251 251 251 251 251 251 251 252 251 252 254 256 257 258 259 259 259 259 259 259 258 256 254 254 254 255 256 256 256 258 258 259 259 259 260
251 251 250 250 249 249 248 246 245 244 244 246 246 247 249 248 248 248 248 248 249 249 249 248 248 249 249 249 251 250 251 251 251 251 251 251 251 251 251 251 251 251 251 251 251 251 251 250 251 251 251 251 251 251 251 251 251 251 253 255 256 257 258 258 259 259 259 259 259 259 258 256 254 253 254 254 254 255 257 257 257 257 257 258 258
Wind_Speed
6 6 5 5 4 5 5 5 5 4 4 5 5 5 5 5 5 5 4 5 5 5 5 6 6 6 5 5 6 5 5 5 4 4 5 5 5 6 4 5 7 6 4 5 4 4 5 6 6 6 4 4 4 5 4 5 5 5 4 5 6 5 5 6 10 14 12 5 9 10 9 6 11 6 11 9 7 6 8 9 9 8 8 9 10
4 4 4 4 5 5 5 4 5 4 5 5 5 5 5 5 5 4 5 4 5 5 5 5 4 4 5 4 4 4 4 4 4 4 4 4 5 4 4 4 5 5 3 4 4 4 5 6 6 5 4 5 5 5 5 5 5 6 6 6 6 6 6 6 9 9 16 8 7 9 9 6 10 6 9 12 10 6 8 8 6 7 9 9 9
4 4 5 5 5 5 4 5 5 5 5 5 5 5 4 4 4 5 4 4 3 4 5 5 5 4 4 4 4 3 4 4 4 4 5 4 5 4 4 4 5 5 5 6 5 5 5 6 6 4 4 5 5 5 4 5 5 6 7 6 7 7 7 8 8 12 13 14 8 10 9 7 7 10 9 10 10 8 10 11 9 7 7 9 10
4 5 4 5 5 5 5 4 5 5 5 4 4 4 3 4 3 4 4 4 4 2 2 3 3 3 3 2 2 2 1 2 2 3 4 4 4 4 4 4 5 5 6 6 5 5 7 6 6 5 4 5 5 5 5 5 5 6 7 7 7 8 8 7 9 10 11 13 12 7 9 8 9 8 8 8 9 10 9 11 8 9 9 9 10
4 4 5 5 4 4 4 4 4 4 4 3 4 3 4 4 3 4 4 3 3 3 2 3 3 3 4 4 3 2 1 1 1 2 3 3 4 4 3 4 4 5 5 5 5 5 5 6 5 4 4 6 6 5 4 6 7 7 8 7 7 8 7 7 8 8 11 14 14 9 7 9 7 9 8 9 10 9 9 10 10 10 11 9 9
5 5 4 5 4 4 3 3 4 4 4 4 4 4 4 4 4 2 3 4 3 3 4 3 3 3 2 2 2 2 2 2 1 1 1 1 1 3 3 4 4 4 4 4 5 5 5 6 5 5 5 6 7 6 6 8 7 7 8 8 7 7 7 7 7 8 10 13 12 14 8 7 9 8 7 8 9 11 11 9 9 8 8 10 9
4 4 4 5 4 4 4 4 4 4 4 4 4 3 3 3 3 3 3 4 4 3 3 3 3 3 3 3 3 3 2 2 1 1 0 0 1 2 2 3 3 3 3 3 3 3 4 5 5 5 6 7 7 7 7 7 6 8 7 8 7 6 8 8 7 9 10 11 12 11 11 8 7 11 6 5 8 8 11 12 12 6 7 9 11
4 4 4 4 4 4 4 4 4 4 3 3 4 4 4 4 4 3 3 4 4 3 4 4 3 4 3 3 2 2 2 1 0 0 0 0 0 1 1 2 3 3 3 3 3 4 4 4 5 5 5 6 6 6 6 7 6 7 6 6 6 7 8 8 8 8 8 10 11 12 9 10 8 8 7 4 6 6 6 8 13 13 10 9 9
4 4 4 4 4 4 4 3 4 5 4 4 4 4 5 5 5 5 5 5 5 4 4 4 4 3 3 2 2 2 2 1 0 0 1 1 0 1 1 2 2 3 3 3 3 3 3 4 4 4 5 8 10 10 9 8 7 8 6 5 6 7 8 8 8 7 7 11 12 9 10 11 9 9 9 7 7 10 7 6 11 12 11 13 12
5 4 4 4 3 4 5 4 5 5 5 5 5 5 5 5 5 6 5 5 5 4 4 4 4 3 2 2 2 2 3 2 3 3 2 1 2 1 2 2 2 3 3 4 5 4 4 4 4 7 9 9 10 11 11 11 11 10 9 7 8 8 8 8 8 7 7 11 12 10 11 12 11 8 10 9 8 9 9 8 11 12 11 13 14
5 5 5 3 4 4 5 5 5 6 5 6 5 6 5 5 6 6 5 5 5 4 5 5 4 2 3 3 4 3 3 3 6 5 6 6 3 2 2 3 2 2 2 3 5 6 4 4 4 5 6 7 7 9 10 11 11 12 13 12 10 9 9 10 10 8 9 11 11 10 10 14 13 8 8 10 8 9 9 9 10 10 10 13 17
7 6 5 4 4 6 5 6 7 6 6 6 5 5 5 6 6 5 5 5 4 5 5 3 3 3 4 3 4 4 4 6 8 8 8 8 7 3 2 2 3 2 2 3 4 4 5 5 4 4 4 5 6 6 8 10 11 12 12 12 12 12 12 11 10 10 9 10 13 12 10 11 13 10 8 8 9 9 8 7 9 10 12 13 13
7 7 5 6 5 5 5 7 6 6 6 5 5 6 7 6 5 5 5 3 4 5 4 5 4 4 4 4 5 4 4 6 6 8 8 8 8 6 3 1 2 3 3 3 4 4 5 5 5 5 5 8 7 6 6 7 9 11 12 12 12 12 13 14 14 12 11 12 12 15 11 9 13 11 5 8 8 13 11 11 10 9 10 12 13
8 7 6 6 5 5 6 7 7 6 5 7 7 7 7 6 4 3 4 4 5 5 5 6 5 5 4 3 3 3 4 6 7 8 8 8 7 6 3 3 3 3 4 4 4 5 5 5 6 7 6 7 7 8 8 8 8 8 7 6 6 7 8 11 13 16 14 12 12 15 13 8 11 13 11 8 11 12 12 12 10 11 12 15 17
7 6 6 5 5 5 6 6 7 7 7 7 7 6 6 5 5 4 5 5 6 6 5 5 4 4 4 3 4 4 4 7 8 8 7 6 6 5 3 3 3 3 3 3 3 4 4 5 4 5 6 6 7 9 10 10 9 9 9 8 7 6 5 5 6 7 7 8 10 12 13 11 10 12 11 9 10 11 11 14 15 14 14 16 16
7 6 6 5 5 5 7 8 8 7 7 7 7 6 6 5 5 4 5 5 5 5 5 5 5 4 3 3 5 6 6 10 9 8 7 6 5 3 3 4 3 3 3 2 2 3 3 4 4 4 5 6 8 13 12 11 9 11 12 10 9 8 6 5 9 11 10 10 9 11 11 13 15 15 14 13 12 11 12 13 12 11 12 14 16
7 6 6 5 6 6 7 8 7 7 6 7 7 6 6 5 5 3 7 6 6 5 4 4 3 4 4 4 6 6 7 10 11 11 11 9 5 5 4 3 3 3 3 2 2 2 3 3 3 4 5 5 9 15 16 14 9 11 11 12 10 9 9 7 9 12 13 15 18 19 23 25 26 27 26 27 18 15 13 14 14 11 12 13 14
6 6 6 5 5 5 5 7 7 7 7 7 7 6 5 4 5 3 5 5 6 4 3 5 5 5 7 7 6 7 7 11 14 15 15 14 8 6 4 4 4 4 4 3 2 2 2 5 5 4 6 6 12 15 16 12 9 10 11 13 14 12 9 7 7 7 12 15 17 18 19 20 22 25 26 25 23 17 12 14 14 13 12 12 15
6 7 6 5 5 5 5 6 6 7 8 7 6 6 5 5 4 4 4 5 5 4 4 6 7 7 7 8 10 9 7 9 15 16 17 16 11 6 6 6 6 6 5 5 4 4 4 4 6 7 8 10 15 14 16 12 9 10 11 12 12 12 10 9 11 11 10 10 9 9 10 12 12 11 12 19 19 16 12 13 12 12 11 11 15
5 6 6 6 5 6 5 6 6 7 8 7 6 6 4 5 4 5 5 5 6 6 6 7 8 7 6 7 8 8 8 7 11 17 17 17 16 8 6 7 8 7 6 5 5 4 4 4 5 10 14 16 17 17 17 19 12 10 9 9 11 13 10 11 11 10 12 12 11 10 11 10 10 9 9 9 10 10 11 10 11 12 13 13 13
5 5 6 6 6 6 5 6 7 7 6 6 6 5 4 5 4 5 6 6 6 7 7 6 7 7 7 7 7 8 8 8 9 16 17 17 17 12 5 7 6 6 5 5 5 6 6 5 5 10 16 18 19 20 20 20 18 11 8 9 10 14 17 12 13 14 11 11 11 10 10 9 9 9 9 9 9 8 9 9 10 11 12 13 14
5 6 6 7 6 6 6 6 6 6 5 5 7 7 5 5 5 5 6 6 8 8 6 6 7 7 7 7 7 7 8 11 8 12 16 16 16 16 8 6 8 6 7 5 6 6 7 7 7 12 19 20 20 20 21 19 20 10 10 16 20 21 14 12 11 10 10 9 9 9 9 9 9 9 9 9 8 8 8 8 9 10 11 11 13
5 6 6 7 7 7 6 6 6 5 5 5 6 8 5 6 6 6 6 7 9 9 7 6 6 6 6 6 6 6 6 6 10 8 13 17 16 15 16 11 15 8 7 8 8 8 7 8 8 13 20 21 20 20 19 20 14 9 17 19 20 21 17 9 10 10 9 9 10 10 10 10 10 9 9 9 8 9 9 10 11 11 11 12 12
5 6 6 6 6 6 6 6 6 5 5 5 7 8 7 7 7 6 6 7 7 8 6 6 6 6 6 5 5 5 5 5 7 10 10 15 15 16 16 17 17 10 9 7 8 8 8 8 11 20 21 20 20 19 18 16 11 17 17 19 19 15 9 8 8 9 9 10 9 10 10 9 10 10 10 10 10 10 11 11 11 11 11 11 12
6 7 6 6 6 5 6 6 6 6 5 5 8 7 7 6 8 5 7 7 7 8 6 6 6 5 5 6 5 5 5 5 5 8 13 13 16 16 17 17 16 16 9 7 7 7 12 19 20 21 20 19 19 17 13 12 15 15 16 17 15 7 7 7 8 8 9 9 9 10 10 10 10 11 10 11 12 11 10 9 9 10 10 10 11
7 7 6 5 5 4 8 7 7 6 6 6 7 6 6 6 7 5 7 7 7 7 6 5 6 5 5 5 5 4 4 4 7 8 8 10 10 13 15 15 14 15 12 9 12 16 16 17 18 16 13 12 10 8 7 9 14 16 15 14 7 6 7 8 8 9 9 9 10 11 11 11 11 11 12 11 10 9 9 10 11 10 9 9 10
7 6 6 6 4 5 6 6 6 6 5 6 6 6 6 6 7 7 6 6 6 6 6 5 5 5 4 3 4 3 4 6 6 6 7 6 6 7 7 7 10 10 7 7 9 8 10 11 11 14 12 15 13 11 10 10 9 8 8 9 9 9 9 9 10 10 10 10 11 11 11 11 11 11 10 10 10 9 8 9 9 10 10 9 9
7 6 6 5 5 5 6 6 7 7 6 6 7 7 6 5 7 7 6 5 5 5 5 5 5 4 3 3 3 4 5 5 6 7 7 7 7 7 7 8 8 8 8 8 8 9 9 9 10 7 7 7 8 7 8 8 9 9 8 8 8 9 11 13 11 9 9 9 10 11 11 11 11 10 10 10 11 10 8 8 9 10 10 9 8
6 6 5 6 6 4 5 5 6 6 7 7 7 7 6 6 6 6 4 2 4 5 5 5 5 4 4 5 5 5 6 6 6 10 9 12 11 9 8 8 8 7 10 15 9 7 6 6 7 6 7 8 8 9 8 9 8 9 9 9 9 10 9 9 9 9 10 10 11 12 12 11 11 11 11 11 11 10 8 8 8 8 9 7 8
6 6 5 5 5 5 6 6 5 6 6 6 7 8 11 12 8 6 6 12 16 14 10 6 6 5 5 6 6 5 5 5 11 14 15 15 16 16 14 14 14 12 15 16 9 5 7 7 8 9 9 9 9 9 9 9 9 9 9 11 10 8 9 10 9 9 11 11 11 10 11 12 12 12 12 12 11 10 9 9 10 8 8 8 9
6 5 5 5 5 5 5 6 5 6 5 6 6 6 6 8 15 16 15 14 14 15 15 16 17 14 8 4 6 12 11 12 13 14 15 15 16 15 14 15 17 17 18 10 7 8 8 8 9 9 10 9 9 10 10 10 10 10 11 11 9 10 11 9 9 11 12 11 10 10 11 11 11 12 13 13 13 12 10 8 7 7 7 8 9
7 5 5 5 6 6 5 5 5 6 5 5 5 5 6 7 7 12 15 15 16 16 15 14 14 15 15 12 7 4 9 13 14 14 15 16 15 15 14 16 17 17 16 13 7 8 8 7 8 8 9 9 10 10 10 10 10 10 11 11 11 11 11 11 12 12 11 10 11 12 11 11 11 12 12 13 13 12 11 10 9 8 8 7 7
7 6 5 5 5 6 5 5 4 4 5 5 5 5 5 6 7 6 8 13 16 15 15 14 13 14 14 14 14 12 11 11 14 15 16 17 16 14 13 15 17 17 15 11 8 7 7 7 7 8 9 9 10 10 10 10 9 10 9 11 12 12 12 13 14 11 10 11 12 11 12 12 12 12 12 12 12 12 12 11 10 9 8 8 8
6 5 5 5 5 5 4 4 4 5 4 5 5 5 5 5 5 5 5 3 4 8 10 13 13 12 14 15 14 14 13 13 14 15 16 17 16 15 13 10 14 17 14 7 7 7 6 6 7 7 8 8 9 9 9 10 9 10 10 10 10 10 11 12 11 12 11 12 11 11 12 12 13 13 13 12 11 11 12 12 11 10 9 8 9
6 7 9 5 4 5 4 4 4 4 4 4 4 5 5 5 5 4 3 3 3 4 3 6 9 13 10 11 14 15 14 14 14 14 16 16 16 13 10 8 9 8 9 7 7 6 6 7 6 7 7 8 8 9 9 10 9 9 10 10 10 10 11 11 11 11 11 11 11 11 12 13 13 13 13 13 13 12 11 11 11 11 11 10 9
6 5 5 5 5 4 4 4 4 4 4 4 4 5 5 5 5 4 4 4 4 3 2 2 2 5 11 13 13 14 14 13 13 14 15 16 15 13 8 7 6 6 6 7 7 6 6 6 6 7 6 7 8 8 8 8 9 9 9 9 10 10 10 11 11 11 11 10 11 12 12 11 12 13 12 12 13 13 12 12 11 12 12 11 9
5 5 5 4 4 4 4 4 4 4 5 5 5 5 5 5 5 3 4 4 4 3 3 2 1 1 3 6 10 12 14 11 12 12 13 13 14 9 6 6 5 5 6 5 6 6 6 6 6 6 6 6 7 7 8 8 8 9 10 9 9 9 9 10 10 11 11 11 11 10 11 12 12 12 12 13 13 11 11 12 12 13 13 15 13
5 5 5 5 4 5 4 5 5 7 5 4 4 4 4 4 3 3 4 3 3 3 4 5 6 7 8 7 9 5 7 7 7 6 8 8 7 5 5 4 4 4 4 4 4 5 5 6 5 6 6 6 7 7 7 7 7 8 9 9 9 9 13 12 12 11 11 10 10 11 11 11 11 12 13 13 13 12 12 13 13 13 12 13 11
4 8 9 9 6 5 4 4 5 5 4 4 4 5 5 4 4 4 4 2 3 4 5 5 5 5 3 4 5 4 6 5 7 6 5 5 4 5 3 4 2 2 2 4 3 4 5 6 6 6 6 6 6 6 7 7 7 7 7 8 8 8 9 7 8 8 8 8 8 9 10 10 10 11 12 12 12 12 13 13 13 12 12 12 10
5 4 6 8 6 6 5 6 4 5 6 4 5 4 4 4 4 4 3 4 4 3 3 3 1 1 3 3 4 4 5 5 4 5 5 6 5 4 3 2 3 3 4 5 5 5 5 6 6 6 6 6 6 7 6 7 7 8 8 8 8 8 8 8 8 8 8 8 9 9 9 10 11 11 11 11 12 12 13 13 13 13 12 12 12
5 6 5 6 6 6 6 5 5 4 4 4 4 4 4 4 3 4 3 4 3 2 1 1 1 3 3 4 7 6 3 3 5 5 6 4 5 4 5 4 4 4 4 4 5 5 5 6 6 6 6 6 6 6 7 7 7 7 8 8 9 9 8 8 8 8 8 8 9 9 10 10 10 11 12 12 13 13 12 12 12 12 12 12 12
6 6 6 5 6 5 6 6 6 5 3 5 3 3 5 5 3 3 4 2 3 1 0 1 1 2 4 7 7 8 4 2 3 5 5 5 6 6 6 6 4 4 4 5 6 6 6 6 6 6 7 6 6 6 7 7 7 7 7 7 8 9 9 8 7 8 8 8 10 10 9 10 12 11 12 13 11 11 11 11 11 12 12 12 12
5 6 6 6 5 5 6 5 4 5 4 4 3 3 4 4 3 4 2 2 1 1 0 1 2 1 3 5 7 7 3 4 4 4 4 5 6 6 6 6 6 6 5 6 6 6 6 6 7 7 7 7 6 6 6 7 6 6 7 7 7 9 9 9 8 8 7 8 9 11 11 10 11 10 11 12 11 11 11 11 11 11 12 12 11
6 6 7 5 6 4 5 5 4 4 3 4 3 4 4 3 2 2 2 1 0 0 0 1 2 4 4 5 4 4 3 5 4 5 4 6 5 6 6 7 6 6 6 6 6 6 6 6 6 7 7 7 6 5 6 6 6 6 7 8 8 9 8 8 9 8 8 8 10 11 9 9 11 11 12 12 11 12 12 12 12 11 11 10 11
6 7 7 7 5 6 3 2 3 3 5 5 3 2 3 1 1 1 1 1 1 0 1 1 1 2 5 5 4 4 5 5 6 6 6 6 6 6 6 6 6 7 6 6 6 5 5 6 6 7 8 7 6 6 6 6 5 6 6 7 8 8 8 9 9 9 7 8 9 10 10 8 9 10 11 11 12 11 12 11 11 12 12 11 11
7 7 7 6 7 6 5 3 5 3 2 3 3 2 1 1 1 0 1 0 1 1 1 1 1 2 4 5 4 6 6 5 6 5 7 6 6 6 6 6 6 6 6 6 6 5 6 6 6 7 8 8 8 7 7 6 6 6 6 6 7 8 8 9 10 9 8 8 8 9 10 9 9 10 12 11 11 10 10 11 11 10 10 11 11
6 6 5 6 5 6 6 5 3 3 3 2 2 1 0 0 0 0 1 2 1 3 1 2 2 3 4 4 5 6 6 4 6 6 6 6 5 6 6 6 7 7 7 6 4 6 6 7 6 7 8 8 8 8 8 7 6 6 6 6 7 8 7 7 9 9 9 8 8 8 9 7 8 9 12 11 10 11 11 11 11 12 11 10 10
7 7 6 6 4 4 3 2 3 4 3 3 1 1 1 1 1 1 2 2 1 2 2 2 2 5 5 6 5 5 5 6 6 7 6 6 6 6 6 6 7 7 7 7 6 6 6 6 7 7 8 8 8 8 8 8 7 7 6 6 6 7 10 11 9 10 8 7 7 9 9 8 8 8 9 10 10 10 10 10 10 10 10 10 10
6 7 6 4 4 4 5 4 6 2 2 1 1 1 2 1 2 2 2 2 2 2 2 4 5 3 4 5 6 6 6 7 6 6 6 6 5 6 7 6 7 7 7 8 7 7 7 7 7 7 7 8 8 8 8 8 8 8 7 7 8 13 16 17 12 10 12 10 8 8 8 7 7 8 8 9 10 9 9 10 9 10 10 9 9
5 4 4 3 4 3 3 4 3 3 3 2 2 1 1 2 2 3 2 2 2 3 3 3 5 5 5 5 6 6 5 6 6 6 6 6 6 6 6 7 7 7 7 7 7 7 7 6 7 7 7 7 8 8 8 8 8 8 7 8 14 18 17 18 18 17 12 7 8 8 8 7 6 6 7 7 8 9 9 9 9 9 9 9 9
5 4 3 3 3 2 3 4 3 3 2 2 2 3 3 4 5 3 2 2 5 5 3 4 6 5 5 6 6 6 6 6 6 6 6 7 6 6 6 7 7 7 7 7 7 7 6 6 6 7 7 8 8 8 8 8 8 8 12 18 20 19 19 17 11 12 16 12 8 8 8 7 6 7 7 7 7 8 9 10 9 8 8 8 8
Wind_Direction
195 207 182 193 178 188 187 180 187 178 178 188 192 200 204 203 204 211 183 205 194 193 195 200 197 199 195 197 195 195 195 200 197 191 200 214 217 215 208 202 218 229 212 225 219 213 221 231 232 229 211 230 246 254 257 258 256 255 248 250 250 244 235 245 260 276 281 222 270 280 293 295 290 274 285 281 274 250 240 250 248 247 249 253 256
199 188 181 180 187 186 188 185 179 175 182 188 200 202 203 201 196 161 185 198 168 176 182 180 173 171 174 180 184 181 184 185 182 179 198 213 231 215 207 203 217 228 203 226 221 221 225 235 245 240 221 230 237 236 239 244 248 250 251 242 243 247 222 240 258 267 282 280 265 280 280 269 272 274 273 287 284 275 268 262 246 233 246 249 255
183 176 177 179 190 184 176 183 177 185 187 194 198 200 196 188 159 163 165 158 156 156 163 160 161 156 155 166 166 172 186 194 179 181 200 208 222 227 213 206 213 219 219 225 224 226 235 240 247 245 244 245 242 241 235 244 242 247 254 242 248 243 234 224 248 267 274 279 269 278 280 279 261 284 274 273 279 272 273 275 270 260 239 248 252
171 168 172 179 176 169 180 181 177 184 192 193 186 177 152 147 151 149 158 142 155 148 135 146 137 144 153 147 165 181 179 209 202 190 209 205 217 223 211 214 220 224 224 227 224 220 232 243 248 242 244 252 255 247 242 243 242 245 248 250 245 253 245 239 238 254 275 283 279 254 282 283 279 267 271 276 275 278 264 273 268 264 262 253 252
161 169 165 168 162 164 179 170 175 181 185 167 168 148 147 139 149 144 130 145 137 124 88 111 125 138 161 176 166 153 168 160 182 219 231 213 212 220 216 213 221 225 228 229 224 222 231 235 250 238 233 246 254 247 242 242 244 242 248 244 244 247 246 242 247 246 263 271 281 274 263 272 269 274 275 279 283 273 271 268 269 266 265 255 255
168 161 161 159 166 164 163 143 162 171 161 158 161 158 140 142 136 114 138 124 101 99 125 103 128 142 123 114 116 115 125 142 167 195 208 191 206 230 228 224 228 228 233 231 228 226 229 237 241 233 235 240 251 245 239 242 243 245 249 253 248 251 252 251 248 252 255 266 274 288 273 260 283 265 259 265 274 286 284 271 267 263 265 271 258
155 153 155 162 160 169 154 162 155 156 162 161 144 133 128 115 110 108 95 118 122 106 84 89 48 106 111 116 124 138 128 126 122 130 135 156 182 202 224 242 249 250 249 247 250 247 247 249 252 245 240 239 246 251 253 255 249 251 247 257 254 256 259 257 253 255 258 270 278 271 283 273 251 281 269 222 253 259 280 296 286 253 249 261 276
147 144 144 144 157 163 162 154 149 147 130 113 106 98 97 90 90 91 88 89 100 106 109 101 80 86 112 106 118 113 107 86 82 102 123 155 142 206 204 235 259 270 273 273 266 259 258 261 259 259 255 257 257 262 258 265 262 263 258 256 262 261 265 266 263 261 270 273 269 281 279 284 278 261 273 266 275 262 227 259 282 293 287 268 256
125 125 124 138 150 143 126 114 111 110 108 101 95 92 90 95 90 82 79 81 77 86 93 106 100 78 55 72 70 61 82 79 135 182 336 322 165 276 265 265 266 277 289 289 286 280 281 275 278 280 275 276 274 274 272 272 280 284 275 252 267 266 270 272 270 271 277 275 279 278 282 283 277 286 288 275 268 279 279 253 274 281 288 288 278
122 116 115 129 121 110 107 100 99 100 94 92 96 96 93 89 86 81 78 84 87 89 82 66 76 89 77 41 45 44 28 10 350 326 283 254 292 303 326 309 300 307 313 316 310 306 287 283 276 271 277 278 278 277 275 272 266 262 274 284 281 279 277 281 280 272 262 274 275 287 286 281 285 284 286 282 281 283 283 279 280 289 289 284 283
86 95 92 85 98 98 95 93 92 87 94 95 94 93 92 91 88 88 83 76 77 75 80 72 69 75 90 59 30 20 5 360 351 350 347 347 355 345 314 305 311 295 293 289 297 303 301 287 282 290 291 292 288 283 282 280 276 273 270 265 260 264 283 284 278 280 279 279 283 281 279 285 286 289 282 290 286 281 280 282 282 289 291 299 299
84 75 73 77 77 85 90 90 86 86 87 89 91 91 88 84 82 85 83 78 74 76 70 89 74 49 52 50 37 17 3 358 3 2 0 359 358 356 348 319 318 321 306 298 290 295 304 311 306 299 288 287 292 295 291 284 281 279 276 272 268 259 249 251 274 283 275 279 283 280 282 283 292 296 297 295 293 288 282 279 282 291 290 286 282
86 77 66 72 72 79 86 89 89 84 84 89 87 81 80 78 77 79 86 107 86 74 70 63 56 48 52 44 25 14 9 355 357 5 8 8 5 15 27 15 336 319 322 312 310 313 316 318 321 316 311 307 303 297 296 293 284 280 279 280 276 267 271 265 256 257 275 277 279 282 280 294 292 292 296 299 304 296 297 289 284 280 279 280 281
87 89 81 77 81 86 92 95 93 94 92 84 82 81 80 84 84 88 96 78 82 81 66 65 56 50 49 53 39 30 27 3 19 17 16 16 16 33 39 29 12 356 345 333 329 329 325 330 329 328 327 325 318 320 318 310 310 306 299 287 281 274 268 262 263 263 261 266 276 280 286 285 281 290 294 292 291 291 296 290 291 287 283 279 281
82 87 89 86 88 92 99 101 98 89 83 85 86 85 90 88 77 71 78 80 83 82 77 73 60 62 52 58 69 52 29 19 22 22 21 22 29 53 49 41 31 14 350 340 331 329 327 328 325 319 322 324 321 323 322 319 316 311 308 307 303 297 287 276 267 265 268 264 264 272 284 286 280 285 289 287 278 279 282 285 286 284 283 282 277
89 86 83 83 91 98 101 94 87 90 93 91 90 86 81 85 93 92 89 80 72 77 60 68 69 67 71 77 77 60 31 27 25 29 28 30 50 55 67 56 46 26 357 349 335 323 326 327 332 329 327 325 321 324 322 324 323 322 319 317 318 314 305 290 283 281 276 274 274 278 281 286 288 288 289 289 286 285 282 280 280 280 283 283 283
92 93 93 89 85 86 95 104 105 103 103 99 94 91 92 85 74 67 86 74 76 73 80 80 77 77 70 64 68 67 47 28 35 39 38 42 52 51 61 59 51 46 22 358 346 337 334 337 329 329 322 322 325 330 331 333 324 320 317 315 314 315 314 317 306 299 295 292 292 292 294 296 296 295 293 291 288 287 287 286 283 284 280 282 282
90 88 82 74 78 84 91 104 108 105 99 97 96 89 81 72 66 44 91 97 85 82 90 84 68 63 60 57 55 66 52 30 38 41 42 37 39 45 40 52 51 34 24 355 343 305 304 306 318 325 329 323 332 335 335 333 321 318 316 315 314 313 310 312 307 301 296 292 289 287 286 287 287 287 288 287 285 285 282 281 287 290 282 280 286
82 86 83 78 76 80 86 93 99 101 96 92 92 92 83 84 80 79 85 93 90 89 76 77 73 60 59 60 50 54 46 35 35 38 38 37 34 27 29 25 29 16 359 349 340 334 323 320 328 333 331 331 335 336 334 331 317 315 311 306 306 308 313 316 308 305 305 302 293 290 284 280 279 279 281 284 284 283 278 278 285 283 281 281 282
71 72 76 74 75 73 76 86 85 91 96 92 84 83 89 88 87 96 84 83 87 75 69 72 74 65 56 53 48 45 42 31 30 32 32 30 32 34 24 22 13 360 352 342 342 341 334 321 319 322 330 334 336 335 334 330 322 309 307 304 304 304 312 306 303 303 301 298 294 287 284 282 280 277 277 279 279 276 277 272 272 274 276 277 278
69 72 73 74 70 70 63 71 81 75 78 91 90 82 69 85 88 87 90 79 81 72 69 71 74 69 56 48 47 39 36 28 21 27 26 25 24 27 22 17 1 357 346 341 335 331 324 322 310 324 327 329 329 328 328 326 323 317 310 303 300 304 310 309 307 302 296 294 293 295 293 290 286 281 280 279 278 276 272 269 270 268 271 274 273
77 81 81 77 75 67 68 64 63 73 72 85 92 82 65 71 75 82 83 84 79 73 66 63 68 65 56 47 42 38 29 28 21 19 21 18 18 15 17 3 356 350 342 333 329 328 327 324 324 323 326 327 325 324 321 319 318 319 303 306 311 314 312 303 303 304 301 299 298 298 298 297 295 291 289 287 286 286 289 290 285 280 275 276 279
75 81 79 76 70 67 62 63 63 63 70 72 91 87 76 73 69 69 79 78 75 71 59 56 61 59 54 45 38 32 24 23 17 16 13 14 11 9 4 359 353 353 343 335 335 326 322 321 316 317 323 324 323 321 318 317 316 302 309 314 316 310 306 304 301 301 302 304 306 304 304 306 307 306 300 298 297 297 296 291 289 287 285 281 276
84 84 80 76 75 69 68 66 66 63 72 82 83 87 75 75 68 64 68 75 79 74 60 57 58 55 49 40 34 28 19 21 6 10 7 6 6 3 360 356 353 349 345 333 330 322 321 320 318 322 322 320 321 321 321 317 304 307 309 305 300 299 303 300 300 304 308 308 308 306 306 305 302 300 301 301 300 299 297 293 288 285 283 284 282
96 91 86 82 80 82 76 73 71 70 65 73 84 81 77 76 77 57 73 74 76 78 70 62 61 55 52 39 24 17 10 10 7 7 8 6 4 359 354 351 348 346 339 323 315 313 319 321 321 322 321 320 318 314 308 301 301 300 298 296 298 295 295 302 304 307 305 305 304 302 300 302 299 295 295 296 295 294 291 287 284 283 281 279 278
96 91 88 82 81 85 85 75 68 67 69 67 76 78 89 84 88 78 77 79 77 81 75 69 62 54 49 40 23 8 358 13 20 14 6 3 354 352 349 347 342 336 326 305 308 316 317 316 316 317 315 315 315 315 312 308 304 299 297 298 304 307 316 317 314 309 306 304 305 303 303 302 301 301 297 293 292 294 299 298 301 300 301 298 294
100 93 90 87 80 79 87 85 83 71 69 74 72 71 68 75 79 76 74 76 77 71 69 65 59 54 46 43 24 359 19 33 16 4 356 354 341 338 334 328 329 326 324 323 324 324 326 325 325 324 324 321 319 317 319 324 333 339 349 346 345 341 335 328 319 315 312 311 308 304 302 299 297 298 300 300 297 296 295 295 296 299 301 299 294
104 102 98 97 87 83 86 91 91 86 70 69 71 65 63 65 74 72 63 62 69 71 71 62 56 49 35 29 29 24 36 22 6 2 351 350 346 348 345 341 341 337 334 332 336 338 333 331 337 335 338 345 347 349 349 350 342 341 343 343 342 338 332 325 322 318 314 309 307 305 303 304 303 303 303 301 300 299 299 297 297 297 296 297 293
106 100 101 96 93 93 91 83 81 85 84 75 70 69 64 55 66 74 76 84 76 77 62 68 62 44 37 42 44 33 27 17 1 4 2 3 360 353 346 341 332 335 340 340 339 337 328 339 328 344 354 348 345 340 342 341 339 338 340 343 341 337 332 338 332 324 326 326 320 315 310 309 307 308 304 300 300 301 302 298 291 288 293 290 281
102 98 99 96 90 85 80 74 69 74 79 81 83 77 71 76 74 72 67 71 70 70 72 68 58 48 55 44 47 43 24 3 9 13 10 6 2 358 354 354 358 356 349 348 349 340 346 347 348 354 349 351 345 346 341 339 332 330 338 341 336 331 335 331 322 333 331 321 312 314 320 319 315 312 309 305 302 302 302 302 300 299 296 295 293
102 95 88 80 79 81 82 79 67 72 69 77 81 92 91 73 76 78 79 75 70 68 68 68 67 64 63 48 27 40 33 26 25 20 16 10 7 6 10 15 11 10 4 8 13 10 9 2 355 355 353 348 346 342 340 334 334 347 344 336 330 337 331 324 340 336 324 313 320 326 322 318 316 319 318 316 311 308 306 299 290 291 287 290 291
107 95 86 84 78 73 73 81 82 82 80 80 87 96 97 97 83 79 81 77 73 69 65 64 62 58 57 56 52 12 30 32 29 24 20 16 15 17 21 23 22 20 16 30 39 22 18 9 356 354 350 350 345 341 337 334 346 347 335 332 332 332 334 338 336 324 315 325 333 328 322 320 322 322 319 317 316 311 309 307 305 299 295 288 280
102 99 88 87 88 85 81 85 87 89 98 92 85 83 90 99 104 101 83 81 73 65 59 58 56 55 51 48 47 46 42 37 32 29 24 21 20 22 25 26 27 26 28 32 35 22 16 8 360 355 352 347 341 338 336 339 344 340 336 333 330 332 334 329 323 319 332 338 333 327 324 327 328 323 321 321 320 316 315 310 306 302 297 294 288
89 98 107 107 107 104 105 104 103 99 92 94 97 97 88 90 93 100 98 70 58 45 45 44 46 48 44 42 41 40 39 39 37 33 31 27 27 27 31 27 30 32 37 34 23 18 12 4 356 350 348 341 337 336 335 338 337 334 332 330 329 328 326 326 332 336 336 336 333 330 333 331 329 325 322 321 318 315 315 317 314 310 304 296 293
101 103 105 105 102 112 106 104 104 101 98 98 100 100 98 92 93 92 103 111 96 60 21 7 24 44 41 32 31 33 34 36 36 35 33 33 31 31 32 30 24 17 23 24 22 9 11 359 352 346 341 336 332 333 332 332 331 333 330 329 329 328 328 330 334 336 339 337 335 337 334 330 326 325 324 321 322 321 319 319 320 317 311 304 298
114 116 113 111 105 102 96 86 82 86 100 99 93 90 89 91 91 86 97 94 93 76 48 25 40 32 46 38 33 31 31 32 33 35 34 34 33 32 41 31 29 17 19 9 7 0 358 350 347 334 332 328 328 328 328 326 326 328 326 326 327 326 327 330 332 337 337 334 330 329 330 329 329 325 322 320 318 317 317 319 321 322 318 311 303
118 118 119 112 105 96 95 96 90 106 107 96 94 99 100 103 97 100 95 96 78 60 56 3 27 35 56 36 22 22 24 32 31 33 33 33 36 39 45 38 31 12 10 3 353 347 344 336 335 325 323 324 319 319 323 321 320 320 321 321 319 321 322 325 329 335 333 331 329 329 327 324 324 324 324 320 319 318 321 325 323 321 321 319 314
118 117 112 108 95 107 105 106 121 118 107 98 96 102 105 99 109 101 98 83 90 74 44 25 34 29 13 356 357 15 19 20 27 32 28 27 28 33 38 26 30 14 358 344 344 333 323 319 318 319 314 315 315 317 314 310 314 316 316 317 319 315 320 322 325 326 327 327 325 325 324 322 322 321 322 320 318 320 324 325 322 319 319 321 320
115 125 125 125 118 110 114 113 114 113 107 108 116 125 119 123 115 102 89 91 89 64 59 46 36 28 339 323 321 354 26 10 18 8 357 359 10 20 30 13 358 356 332 325 315 319 310 309 311 311 310 310 311 312 312 312 316 313 312 314 312 310 314 315 316 318 321 319 318 318 319 318 316 319 320 319 316 319 318 319 320 319 319 319 318
127 130 132 124 112 120 113 114 111 111 119 122 125 123 121 115 111 109 109 95 71 67 66 51 17 316 306 308 308 13 25 3 354 347 343 341 344 343 351 337 323 306 298 299 299 298 302 300 305 308 306 309 309 308 312 312 311 312 313 313 311 310 309 310 311 314 316 318 318 317 316 316 317 318 315 314 315 318 319 320 321 322 319 318 316
131 127 123 128 117 116 109 107 112 119 124 123 124 121 118 113 116 108 97 84 81 71 59 66 265 285 291 318 348 11 72 1 339 333 326 321 320 319 317 302 293 292 290 287 286 287 285 290 294 296 298 297 301 302 306 306 307 310 311 312 310 305 304 302 307 311 314 318 318 317 314 313 317 319 317 314 316 317 318 320 318 317 318 318 318
130 127 123 118 117 120 120 120 116 111 117 117 109 108 109 112 111 101 86 85 86 105 122 276 277 271 305 342 353 353 19 350 330 317 310 312 303 296 290 287 273 263 266 269 268 276 278 281 281 287 289 292 293 297 298 297 302 302 304 303 304 307 306 304 307 314 318 321 319 315 311 318 321 318 314 314 312 313 317 318 317 317 319 322 321
129 123 125 119 124 129 132 135 131 124 114 111 107 107 109 102 97 93 96 105 123 124 240 325 310 326 332 342 343 343 351 331 306 302 298 293 290 287 287 282 280 270 266 265 265 259 264 267 275 276 278 279 280 280 286 288 296 297 296 300 302 303 301 304 309 311 316 317 315 314 313 315 320 320 318 314 312 312 312 315 318 319 319 319 320
129 125 122 121 122 117 122 124 123 124 121 118 112 111 100 101 96 99 115 120 142 123 346 294 306 325 320 328 342 335 314 296 292 280 277 283 286 288 287 287 289 288 280 272 269 262 260 267 271 275 273 276 272 268 268 273 275 281 289 295 297 297 297 303 306 309 318 319 318 315 312 316 320 319 316 315 314 317 318 319 320 320 322 321 320
131 131 132 125 128 121 121 122 127 120 106 92 91 89 100 109 111 142 132 123 145 351 286 283 297 298 302 304 310 298 287 281 280 284 283 280 281 283 285 288 286 287 285 281 271 270 266 266 270 276 283 280 278 275 271 267 263 261 265 277 284 288 291 296 299 301 306 310 312 311 311 314 317 319 317 315 318 316 318 319 320 322 323 324 325
139 141 137 137 130 130 129 126 111 107 118 136 134 113 101 99 115 116 112 201 246 255 265 269 271 270 272 282 284 281 280 281 277 270 275 280 279 283 283 284 284 282 280 278 279 274 272 268 272 276 279 283 286 284 280 272 268 263 262 255 264 272 280 288 291 293 300 305 305 306 309 310 315 316 316 315 312 313 313 315 316 318 321 321 321
138 139 137 135 138 140 136 120 111 130 159 152 122 108 109 147 171 181 192 219 223 235 251 261 267 273 271 268 269 275 272 274 274 280 275 275 277 278 283 284 287 285 285 281 275 274 275 275 273 273 277 281 283 285 285 283 276 272 264 264 262 273 276 284 290 294 293 298 303 300 301 303 310 316 317 317 312 313 315 316 318 318 319 321 320
136 131 133 133 131 123 127 139 169 184 151 118 117 136 173 198 205 216 233 237 247 256 268 272 263 263 271 270 261 263 267 267 269 270 275 275 275 276 279 282 283 284 288 290 287 279 275 276 276 277 279 282 284 286 286 287 286 277 275 267 268 265 276 282 284 284 285 293 294 294 294 301 306 310 313 313 312 313 316 315 316 316 318 320 323
135 135 133 131 136 148 164 177 185 167 156 141 138 160 215 223 236 233 234 242 250 249 245 261 275 265 257 262 264 264 262 269 272 276 273 272 274 276 275 275 279 282 286 286 288 287 284 281 278 277 276 280 281 282 287 287 288 286 282 279 276 279 284 287 287 286 296 297 288 288 287 288 298 307 310 311 309 310 308 306 310 314 316 319 320
133 129 129 140 145 164 176 180 166 151 141 132 164 211 227 228 245 248 242 245 255 257 249 246 252 260 260 272 273 270 269 272 275 276 279 278 277 275 278 278 280 279 280 282 284 285 282 279 279 281 280 280 281 282 283 285 285 286 287 282 287 291 292 294 294 294 295 286 289 291 287 284 290 298 301 301 304 307 306 306 313 315 315 317 320
127 128 135 147 155 169 175 170 164 158 155 170 194 212 233 238 241 241 243 252 256 263 260 252 252 258 258 252 259 271 275 274 271 271 274 276 279 280 281 283 285 286 286 283 284 281 281 283 282 284 285 286 287 287 286 284 284 282 287 293 296 296 295 295 294 295 294 293 292 291 285 284 297 303 305 305 308 304 306 311 312 312 313 313 314